Overview Statistics Trail Chart Weather Telemetry Raw packets
 

This is the latest recevied weather packets stored in our database for station/object ac2ev. If no packets are shown the sender has not sent any weather packets the latest 10 day(s).

<< 52 53 54 55 56 57 58 >>
Time Temp. Humidity Pressure Rain* Wind** Luminosity Snow
1788301899 22.78° C 87% 1014.1 hPa 0 mm - - -
1788301596 22.78° C 87% 1014.1 hPa 0 mm - - -
1788301297 22.78° C 87% 1014.1 hPa 0 mm - - -
1788300996 23.33° C 86% 1014.1 hPa 0 mm - - -
1788300696 23.33° C 86% 1014 hPa 0 mm - - -
1788300395 23.33° C 86% 1013.9 hPa 0 mm - - -
1788300093 23.33° C 86% 1013.9 hPa 0 mm - - -
1788299792 23.33° C 85% 1014 hPa 0 mm - - -
1788299491 23.33° C 85% 1013.9 hPa 0 mm - - -
1788299191 23.33° C 85% 1013.9 hPa 0 mm - - -
1788298890 23.33° C 85% 1013.9 hPa 0 mm - - -
1788298593 23.89° C 85% 1013.9 hPa 0 mm - - -
1788298290 23.89° C 84% 1013.9 hPa 0 mm - - -
1788297991 23.89° C 84% 1013.9 hPa 0 mm - - -
1788297690 23.89° C 83% 1013.9 hPa 0 mm - - -
1788297392 24.44° C 85% 1013.8 hPa 0 mm - - -
1788297091 23.89° C 85% 1013.8 hPa 0 mm - - -
1788296791 23.89° C 85% 1013.9 hPa 0 mm - - -
1788296495 23.89° C 84% 1013.9 hPa 0 mm - - -
1788296184 23.89° C 84% 1013.7 hPa 0 mm - - -
1788295878 23.89° C 85% 1013.7 hPa 0 mm - - -
1788295572 23.89° C 85% 1013.7 hPa 0 mm - - -
1788295273 23.89° C 85% 1013.8 hPa 0 mm - - -
1788294973 23.89° C 85% 1013.8 hPa 0 mm - - -
1788294672 23.33° C 86% 1013.7 hPa 0 mm - - -

* Rain latest hour (hover to see other rain measurements)
** Current wind speed in m/s (hover to see current wind gust speed)